sat.trackr.live / text

‹ back to catalog

STARLINK-35685

NORAD 67128 · 2025-299AC

PAYLOAD ACTIVE UNKNOWN

§ Identity

Operator
Country
US
Launch date
2025-12-15
Launch site
AFETR
Launch vehicle
Mass (kg)
RCS (m²)

Purposes: comms

External: N2YO · Heavens-Above · Gunter

§ Orbital elements

Epoch: 2026-05-24T21:26:12.858432Z

Period
94.27 min
Inclination
42.9987°
Eccentricity
0.0000762
Mean motion
15.27590968 rev/d
Perigee alt
482.5 km
Apogee alt
483.5 km
Semi-major
6,861.2 km
B*
4.2019e-4
RAAN
98.3689°
Arg perigee
257.3036°
Mean anomaly
102.7730°
Rev number
2,477

§ Raw data

STARLINK-356851 67128U 25299AC  26144.89320438  .00011322  00000+0  42019-3 0  99922 67128  42.9987  98.3689 0000762 257.3036 102.7730 15.27590968 24771

JSON: /api/v1/satellites/67128 · /tle

For live sub-satellite position, see the globe view (requires WebGL).

§ Visibility from observer

Set your observer location to see the next 7 days of passes ≥ 10°. The values pass through the URL so the page stays shareable.

No JS? Fill the form by hand. The geolocation button needs JavaScript.